Location: Freemans Gardens
(41.6414°N, 83.6077°W)
Time: 21:58:54
(UTC+00:00)

Cosmos 2082 - Pass Details

Date: 29 October 2020
Orbit: 832 x 857 km, 71.0° (Epoch: 25 November)

Event Time Altitude Azimuth Distance (km) Brightness Sun altitude
Rises 23:16:52 0° 343° (NNW) 3,435 7.0 -8.9°
Reaches altitude 10° 23:19:35 10° 353° (N) 2,497 6.1 -9.4°
Maximum altitude 23:24:45 34° 57° (ENE) 1,388 4.4 -10.4°
Drops below altitude 10° 23:29:54 10° 121° (ESE) 2,484 5.7 -11.3°
Enters shadow 23:31:43 - 128° (SE) 3,112 6.2 -11.7°
